BTK6284 WIII-WAAA

Flight info

Callsign BTK6284
Flight time N/A
Altitude 37000
Route CA T5 BIMAK
Aircraft B738/M-SDE2E3FGHIRWXY/LB1

Departure

Time N/A
Airport Soekarno-Hatta International Airport (WIII)

Arrival

Time 2026-05-05 04:45
Airport Sultan Hasanuddin International Airport (WAAA)
Time Latitude Longitude Altitude Speed Heading
2026-05-05 04:28 -4.65587 119.29667 9872 ft 293 kts 130°
2026-05-05 04:29 -4.67197 119.30908 9878 ft 295 kts 154°
2026-05-05 04:29 -4.69188 119.31395 9887 ft 298 kts 176°
2026-05-05 04:29 -4.71234 119.31088 9877 ft 301 kts 201°
2026-05-05 04:29 -4.72923 119.29874 9875 ft 302 kts 229°
2026-05-05 04:30 -4.73941 119.28044 9877 ft 304 kts 253°
2026-05-05 04:30 -4.74146 119.25946 9871 ft 305 kts 278°
2026-05-05 04:30 -4.73485 119.23946 9895 ft 304 kts 302°
2026-05-05 04:30 -4.72062 119.22411 9876 ft 302 kts 328°
2026-05-05 04:31 -4.70137 119.21626 9869 ft 299 kts 353°
2026-05-05 04:31 -4.68078 119.21654 9878 ft 297 kts 14°
2026-05-05 04:31 -4.66249 119.22561 9624 ft 297 kts 45°
2026-05-05 04:31 -4.65177 119.24271 9386 ft 294 kts 75°
2026-05-05 04:32 -4.65158 119.26283 9129 ft 290 kts 105°
2026-05-05 04:32 -4.65797 119.28179 8907 ft 285 kts 107°
2026-05-05 04:32 -4.66313 119.30080 8646 ft 281 kts 101°
2026-05-05 04:32 -4.66632 119.31967 8392 ft 277 kts 96°
2026-05-05 04:33 -4.66803 119.33897 8133 ft 273 kts 92°
2026-05-05 04:33 -4.66872 119.35761 7882 ft 269 kts 90°
2026-05-05 04:33 -4.66878 119.37631 7641 ft 266 kts 89°
2026-05-05 04:33 -4.66846 119.39471 7383 ft 263 kts 88°
2026-05-05 04:34 -4.66791 119.41293 7122 ft 260 kts 88°
2026-05-05 04:34 -4.66724 119.43095 6873 ft 257 kts 87°
2026-05-05 04:34 -4.66650 119.44878 6653 ft 254 kts 87°
2026-05-05 04:34 -4.66572 119.46602 6612 ft 242 kts 87°
2026-05-05 04:35 -4.66496 119.48263 6563 ft 237 kts 87°
2026-05-05 04:35 -4.66418 119.49912 6537 ft 236 kts 87°
2026-05-05 04:35 -4.66341 119.51549 6524 ft 235 kts 87°
2026-05-05 04:35 -4.66263 119.53184 6494 ft 234 kts 87°
2026-05-05 04:36 -4.66267 119.54814 6451 ft 237 kts 102°
2026-05-05 04:36 -4.66976 119.56310 6448 ft 241 kts 124°
2026-05-05 04:36 -4.68010 119.57651 6447 ft 243 kts 127°
2026-05-05 04:36 -4.69079 119.58969 6418 ft 244 kts 127°
2026-05-05 04:37 -4.70149 119.60294 6370 ft 245 kts 127°
2026-05-05 04:37 -4.71207 119.61620 6351 ft 242 kts 127°
2026-05-05 04:37 -4.72394 119.62799 6180 ft 242 kts 148°
2026-05-05 04:37 -4.73998 119.63336 6085 ft 248 kts 167°
2026-05-05 04:38 -4.75715 119.63593 6049 ft 250 kts 170°
2026-05-05 04:38 -4.77440 119.63808 6030 ft 247 kts 171°
2026-05-05 04:38 -4.79143 119.64014 5981 ft 245 kts 170°
2026-05-05 04:38 -4.80831 119.64232 5874 ft 243 kts 170°
2026-05-05 04:39 -4.82511 119.64454 5605 ft 241 kts 170°
2026-05-05 04:39 -4.84108 119.64669 5567 ft 223 kts 169°
2026-05-05 04:39 -4.85109 119.64806 5373 ft 217 kts 170°
2026-05-05 04:39 -4.87054 119.65074 5087 ft 200 kts 169°
2026-05-05 04:40 -4.88383 119.65254 4805 ft 194 kts 169°
2026-05-05 04:40 -4.89721 119.65390 4458 ft 193 kts 182°
2026-05-05 04:40 -4.90600 119.65134 4192 ft 197 kts 207°
2026-05-05 04:40 -4.91770 119.64479 3807 ft 192 kts 206°
2026-05-05 04:41 -4.93324 119.63617 3246 ft 192 kts 207°
2026-05-05 04:41 -4.94479 119.62949 2845 ft 191 kts 209°
2026-05-05 04:41 -4.95249 119.62507 2660 ft 184 kts 208°
2026-05-05 04:41 -4.96330 119.61884 2402 ft 175 kts 209°
2026-05-05 04:42 -4.97360 119.61287 2200 ft 169 kts 209°
2026-05-05 04:42 -4.98371 119.60700 1959 ft 167 kts 210°
2026-05-05 04:42 -4.99364 119.60122 1736 ft 163 kts 210°
2026-05-05 04:42 -5.00342 119.59555 1507 ft 162 kts 210°
2026-05-05 04:43 -5.01312 119.58993 1322 ft 162 kts 211°
2026-05-05 04:43 -5.02295 119.58424 1081 ft 163 kts 210°
2026-05-05 04:43 -5.03264 119.57861 871 ft 161 kts 211°
2026-05-05 04:43 -5.04214 119.57309 713 ft 156 kts 209°
2026-05-05 04:44 -5.05161 119.56775 525 ft 156 kts 211°
2026-05-05 04:44 -5.06084 119.56226 299 ft 153 kts 210°
2026-05-05 04:44 -5.06999 119.55695 72 ft 150 kts 212°
2026-05-05 04:44 -5.07840 119.55204 41 ft 123 kts 210°
2026-05-05 04:45 -5.08450 119.54853 40 ft 80 kts 210°
2026-05-05 04:45 -5.08792 119.54654 43 ft 36 kts 210°
2026-05-05 04:45 -5.08993 119.54538 41 ft 31 kts 210°
2026-05-05 04:45 -5.09140 119.54455 42 ft 17 kts 209°
2026-05-05 04:46 -5.09197 119.54401 41 ft 8 kts 242°
2026-05-05 04:46 -5.09197 119.54350 38 ft 8 kts 293°
2026-05-05 04:46 -5.09170 119.54301 40 ft 9 kts 304°
2026-05-05 04:46 -5.09111 119.54276 40 ft 11 kts
2026-05-05 04:47 -5.09046 119.54309 40 ft 10 kts 33°
2026-05-05 04:47 -5.08985 119.54346 40 ft 10 kts 29°
2026-05-05 04:47 -5.08924 119.54380 41 ft 10 kts 29°
2026-05-05 04:47 -5.08852 119.54420 40 ft 13 kts 29°
2026-05-05 04:48 -5.08775 119.54463 39 ft 13 kts 29°
2026-05-05 04:48 -5.08695 119.54508 40 ft 13 kts 30°
2026-05-05 04:48 -5.08611 119.54556 41 ft 16 kts 30°
2026-05-05 04:48 -5.08503 119.54619 40 ft 19 kts 30°
2026-05-05 04:49 -5.08387 119.54687 40 ft 19 kts 29°
2026-05-05 04:49 -5.08275 119.54751 40 ft 18 kts 30°
2026-05-05 04:49 -5.08168 119.54813 40 ft 15 kts 30°
2026-05-05 04:49 -5.08077 119.54842 40 ft 14 kts 336°
2026-05-05 04:50 -5.08025 119.54773 40 ft 12 kts 302°
2026-05-05 04:50 -5.07956 119.54757 40 ft 9 kts 26°
2026-05-05 04:50 -5.07900 119.54789 38 ft 9 kts 31°
2026-05-05 04:50 -5.07849 119.54820 40 ft 8 kts 30°
2026-05-05 04:51 -5.07827 119.54845 40 ft 4 kts 91°
2026-05-05 04:51 -5.07834 119.54868 40 ft 3 kts 116°
2026-05-05 04:51 -5.07845 119.54887 40 ft 2 kts 120°
2026-05-05 04:51 -5.07850 119.54896 40 ft 0 kts 120°